DECAYED

STARLINK-2006, 47601 (Decayed)

Orbit data source: Space-Track

STARLINK-2006, 47601 was a payload satellite owned by SpaceX/Seattle (US) in LEO that was launched on Thu, 04 Feb 2021 UTC via an FALCON 9 launch vehicle from the Air Force Eastern Test Range (AFETR). Payload-class satellites include a variety of spacecraft equipped with specific instruments for various scientific and technological missions. These include communications satellites like Starlink; space stations such as the ISS; scientific satellites like the Hubble; Earth observation satellites from companies like Planet Labs, Umbra, and HawkEye 360; GPS; miniature CubeSats for education and research; and military/defense satellites.

Not visible in the next 10 days
Identifier
47601, 2021-009BF
Orbit
Decayed
Country
Flag of USUS
Related business
Manufacturer
SpaceX/Seattle
Mission
Decayed Commercial Communications
Bus & Motor
STARLINK, Unknown motor
Mass
260 kg wet, ~248 kg dry
Launch date (UTC)
2021-02-04 (5 years ago)
Launch vehicle
FALCON 9
Launch site
Air Force Eastern Test Range (AFETR)
Object type
Payload
Rocket body
Debris
Shape & HBR
Box + 1 Pan, 10.1 m
Radar Cross Section
13.562 m², Large (>1 m²)

Expand to show TLE details & history
Last TLE update: 1 year ago

TLE from 1 year ago
0 STARLINK-2006
1 47601U 21009BF  25052.97393356  .09525206  12393-4  63798-3 0  9996
2 47601  53.0339 230.0618 0006826 277.2493 225.8823 16.40608852224861
Epoch: 2025-02-21T23:22Z
TLE epoch observation values (Epoch: 2025-02-21T23:22:27.859Z)
Latitude
28.77721°
Longitude
-116.94894°
Altitude
168.793 km
Speed
7.807 km/s
True Right ascension
01h 43m 10s
True Declination
28° 37' 09"
Sunlit
Object was in daylight at epoch
Visualization orbit readout
Latitude
Unknown
Longitude
Unknown
Altitude
Unknown
Speed
Unknown
Apparent Right ascension
Unknown
Apparent Declination
Unknown
Sunlit
N/A
Visualization observer readout
Local Sidereal Time
23:08:48
Azimuth
Unknown
Elevation
Unknown
Doppler factor
Unknown
Orbital elements
Apogee altitude
168.939 km
Perigee altitude
160.007 km
Semi-major axis
6,542.61 km
Eccentricity
0.00068
Inclination
53.0339°
RAAN
230.0618°
Arg. of periapsis
277.2493°
True anomaly
225.82618°
Mean anomaly
225.8823°
Eccentric anomaly
225.85424°
Mean motion
4.10125 °/min
Orbital period
87.78 mins
BSTAR
0.00063798
Loading maneuver chart data...
Computing Atmospheric mass density...

Documentation

Showing up to 5 results
|